Allentown, PA

12:41 PM EST on December 05, 2019 (GMT -0500)
Allentown

Weather History for KXLL - October, 2019

Change the Weather History Date:

Tuesday, October 22, 2019

  Actual Average (KABE) Record (KABE)
Temperature  
Mean Temperature 58 °F -  
Max Temperature 62 °F 62 °F 84 °F (1979)
Min Temperature 53 °F 39 °F 21 °F (1940)
Degree Days  
Heating Degree Days 8    
Growing Degree Days 8 (Base 50)    
Moisture  
Dew Point 56 °F    
Average Humidity 94    
Maximum Humidity 100    
Minimum Humidity 88    
Precipitation  
Precipitation 0.28 in - - ()
Sea Level Pressure  
Sea Level Pressure 29.96 in    
Wind  
Wind Speed 3 mph ()    
Max Wind Speed 14 mph    
Max Gust Speed 20 mph    
Visibility 5.9 miles    
Events Rain    
Averages and records for this station are not official NWS values.
T = Trace of Precipitation, MM = Missing Value Source: Averaged Metar Reports

Daily Weather History Graph

Daily Weather History Graph

Search for Another Location

Airport or City:

Astronomy

Oct. 22, 2019 Rise Set
Actual Time 7:20 AM EDT 6:11 PM EDT
Civil Twilight 6:52 AM EDT 6:39 PM EDT
Nautical Twilight 6:20 AM EDT 7:11 PM EDT
Astronomical Twilight 5:49 AM EDT 7:43 PM EDT
Moon 12:25 AM EDT (10/22) 3:21 PM EDT (10/22)
Length of Visible Light 11h 47m
Length of Day
10h 51m
Last Quarter, 37% of the Moon is Illuminated
Oct 22
Last Quarter
Oct 27
New
Nov 4
First Quarter
Nov 12
Full
Nov 19
Last Quarter

Hourly Weather History & Observations

Time (EDT) Temp. Dew Point Humidity Pressure Visibility Wind Dir Wind Speed Gust Speed Precip Events Conditions
12:15 AM 55.4 °F 51.8 °F 88% 30.12 in 10.0 mi Calm Calm - N/A   Overcast
12:35 AM 55.4 °F 51.8 °F 88% 30.11 in 10.0 mi Calm Calm - N/A   Overcast
12:55 AM 55.4 °F 51.8 °F 88% 30.10 in 10.0 mi Calm Calm - N/A   Overcast
1:15 AM 55.4 °F 51.8 °F 88% 30.09 in 10.0 mi Calm Calm - N/A   Overcast
1:35 AM 55.4 °F 51.8 °F 88% 30.09 in 10.0 mi Calm Calm - N/A   Mostly Cloudy
1:55 AM 55.4 °F 51.8 °F 88% 30.10 in 10.0 mi Calm Calm - N/A   Mostly Cloudy
2:15 AM 55.4 °F 51.8 °F 88% 30.11 in 10.0 mi Calm Calm - N/A   Overcast
2:35 AM 55.4 °F 51.8 °F 88% 30.11 in 10.0 mi Calm Calm - N/A   Overcast
2:55 AM 55.4 °F 51.8 °F 88% 30.11 in 10.0 mi Calm Calm - N/A   Overcast
3:15 AM 55.4 °F 53.6 °F 94% 30.11 in 10.0 mi Calm Calm - N/A   Overcast
3:35 AM 55.4 °F 53.6 °F 94% 30.09 in 10.0 mi Calm Calm - N/A   Overcast
3:55 AM 55.4 °F 53.6 °F 94% 30.08 in 10.0 mi East 3.5 mph - N/A   Overcast
4:15 AM 55.4 °F 51.8 °F 88% 30.07 in 10.0 mi NNE 3.5 mph - N/A   Overcast
4:35 AM 55.4 °F 51.8 °F 88% 30.07 in 10.0 mi Calm Calm - N/A   Overcast
4:55 AM 55.4 °F 51.8 °F 88% 30.07 in 10.0 mi NE 3.5 mph - N/A   Overcast
5:15 AM 55.4 °F 51.8 °F 88% 30.06 in 10.0 mi Calm Calm - N/A   Overcast
5:35 AM 55.4 °F 51.8 °F 88% 30.06 in 10.0 mi Calm Calm - N/A   Overcast
5:55 AM 55.4 °F 51.8 °F 88% 30.05 in 10.0 mi ENE 3.5 mph - N/A   Overcast
6:15 AM 55.4 °F 51.8 °F 88% 30.06 in 10.0 mi ENE 4.6 mph - N/A   Overcast
6:35 AM 55.4 °F 51.8 °F 88% 30.03 in 10.0 mi East 5.8 mph - N/A   Overcast
6:55 AM 55.4 °F 51.8 °F 88% 30.04 in 10.0 mi Calm Calm - N/A   Overcast
7:15 AM 55.4 °F 51.8 °F 88% 30.04 in 10.0 mi ESE 5.8 mph - N/A   Overcast
7:35 AM 55.4 °F 51.8 °F 88% 30.04 in 10.0 mi East 3.5 mph - N/A   Overcast
7:55 AM 55.4 °F 51.8 °F 88% 30.04 in 10.0 mi ESE 5.8 mph - N/A   Overcast
8:15 AM 55.4 °F 51.8 °F 88% 30.04 in 10.0 mi East 3.5 mph - N/A   Overcast
8:35 AM 55.4 °F 51.8 °F 88% 30.04 in 5.0 mi East 4.6 mph - N/A   Overcast
8:55 AM 55.4 °F 51.8 °F 88% 30.04 in 4.0 mi East 6.9 mph - N/A   Overcast
9:15 AM 55.4 °F 53.6 °F 94% 30.04 in 5.0 mi East 4.6 mph - N/A   Overcast
9:35 AM 53.6 °F 53.6 °F 100% 30.05 in 2.5 mi East 5.8 mph - N/A   Overcast
9:55 AM 55.4 °F 53.6 °F 94% 30.04 in 4.0 mi East 6.9 mph - N/A   Overcast
10:15 AM 55.4 °F 53.6 °F 94% 30.04 in 2.5 mi ESE 5.8 mph - N/A   Overcast
10:35 AM 55.4 °F 53.6 °F 94% 30.03 in 1.5 mi East 8.1 mph - N/A   Overcast
10:55 AM 55.4 °F 53.6 °F 94% 30.02 in 1.5 mi ESE 10.4 mph - N/A   Overcast
11:15 AM 55.4 °F 55.4 °F 100% 30.02 in 1.8 mi ESE 10.4 mph - N/A   Overcast
11:35 AM 57.2 °F 55.4 °F 94% 30.00 in 1.8 mi ESE 12.7 mph 16.1 mph N/A   Overcast
11:55 AM 57.2 °F 55.4 °F 94% 29.99 in 1.8 mi ESE 13.8 mph - N/A   Overcast
12:15 PM 57.2 °F 55.4 °F 94% 29.98 in 2.0 mi East 13.8 mph 18.4 mph N/A   Overcast
12:35 PM 57.2 °F 55.4 °F 94% 29.98 in 3.0 mi East 10.4 mph 16.1 mph N/A   Overcast
12:55 PM 57.2 °F 55.4 °F 94% 29.95 in 2.0 mi East 6.9 mph - N/A   Overcast
1:15 PM 59.0 °F 57.2 °F 94% 29.92 in 1.2 mi East 5.8 mph - N/A   Overcast
1:35 PM 59.0 °F 57.2 °F 94% 29.91 in 2.5 mi East 6.9 mph - N/A   Overcast
1:55 PM 59.0 °F 59.0 °F 100% 29.90 in 1.5 mi ENE 8.1 mph - N/A   Overcast
2:15 PM 59.0 °F 59.0 °F 100% 29.89 in 1.2 mi East 8.1 mph - N/A   Overcast
2:35 PM 59.0 °F 59.0 °F 100% 29.88 in 1.5 mi East 9.2 mph - N/A   Overcast
2:55 PM 60.8 °F 59.0 °F 94% 29.87 in 1.8 mi East 8.1 mph - N/A   Overcast
3:15 PM 60.8 °F 59.0 °F 94% 29.86 in 1.2 mi East 9.2 mph - N/A   Overcast
3:35 PM 60.8 °F 60.8 °F 100% 29.86 in 2.0 mi East 9.2 mph - N/A   Overcast
3:55 PM 60.8 °F 60.8 °F 100% 29.86 in 1.5 mi ESE 8.1 mph - N/A   Overcast
4:15 PM 60.8 °F 60.8 °F 100% 29.85 in 1.2 mi ESE 9.2 mph - N/A Rain Rain
4:35 PM 60.8 °F 60.8 °F 100% 29.85 in 1.2 mi ESE 8.1 mph - N/A Rain Rain
4:55 PM 60.8 °F 60.8 °F 100% 29.84 in 1.8 mi ESE 9.2 mph - N/A Rain Rain
5:15 PM 60.8 °F 60.8 °F 100% 29.82 in 3.0 mi East 9.2 mph - N/A Rain Rain
5:35 PM 62.6 °F 60.8 °F 94% 29.85 in 5.0 mi SE 3.5 mph - N/A Rain Heavy Rain
5:55 PM 62.6 °F 60.8 °F 94% 29.83 in 7.0 mi East 4.6 mph - 0.02 in Rain Light Rain
6:15 PM 60.8 °F 60.8 °F 100% 29.84 in 5.0 mi Calm Calm - N/A Rain Rain
6:35 PM 60.8 °F 60.8 °F 100% 29.84 in 5.0 mi Calm Calm - N/A Rain Rain
6:55 PM 60.8 °F 60.8 °F 100% 29.83 in 5.0 mi East 3.5 mph - N/A   Heavy Drizzle
7:15 PM 60.8 °F 60.8 °F 100% 29.83 in 5.0 mi Calm Calm - 0.02 in Rain Rain
7:35 PM 60.8 °F 60.8 °F 100% 29.82 in 7.0 mi ESE 4.6 mph - 0.02 in Rain Rain
7:55 PM 60.8 °F 60.8 °F 100% 29.83 in 4.0 mi SW 8.1 mph - 0.04 in Rain Heavy Rain
8:15 PM 60.8 °F 60.8 °F 100% 29.84 in 3.0 mi WSW 8.1 mph 19.6 mph N/A Rain Rain
8:35 PM 60.8 °F 60.8 °F 100% 29.84 in 4.0 mi Calm Calm - 0.02 in Rain Rain
8:55 PM 60.8 °F 60.8 °F 100% 29.84 in 4.0 mi Calm Calm - 0.04 in   Heavy Drizzle
9:15 PM 60.8 °F 60.8 °F 100% 29.83 in 4.0 mi Calm Calm - 0.02 in   Heavy Drizzle
9:35 PM 60.8 °F 59.0 °F 94% 29.84 in 4.0 mi Calm Calm - 0.04 in   Drizzle
9:55 PM 59.0 °F 59.0 °F 100% 29.84 in 3.0 mi Calm Calm - 0.06 in   Heavy Drizzle
10:15 PM 59.0 °F 59.0 °F 100% 29.82 in 3.0 mi East 3.5 mph - 0.02 in   Drizzle
10:35 PM 59.0 °F 59.0 °F 100% 29.84 in 10.0 mi West 3.5 mph - 0.04 in   Overcast
10:55 PM 59.0 °F 59.0 °F 100% 29.84 in 10.0 mi Calm Calm - 0.06 in   Overcast
11:15 PM 59.0 °F 59.0 °F 100% 29.84 in 10.0 mi Calm Calm - 0.02 in   Overcast
11:35 PM 59.0 °F 59.0 °F 100% 29.83 in 10.0 mi WSW 3.5 mph - 0.04 in   Overcast
11:55 PM 59.0 °F 59.0 °F 100% 29.83 in 10.0 mi WSW 4.6 mph - 0.06 in   Overcast